Location: *
(2.5500°S, 65.9667°W)
Time: 12:15:04
(UTC+00:00)

Cosmos 1242 Rocket - Pass Details

Date: 26 October 2021
Orbit: 444 x 482 km, 81.2° (Epoch: 29 November)

Event Time Altitude Azimuth Distance (km) Brightness Sun altitude
Rises 23:01:52 0° 158° (SSE) 2,462 6.1 -12.6°
Reaches altitude 10° 23:04:30 10° 136° (SE) 1,594 4.9 -13.2°
Enters shadow 23:05:27 14° 122° (ESE) 1,377 4.4 -13.5°
